User: anonymous
Location: Clinton NY
(43.0598°N, 75.3602°W)
Time: 20:38:05
(UTC-04:00)
Language:

Cosmos-2242 - Orbit

View from above orbital plane
View from above orbital plane
View from above satellite
View from above satellite

Ground track
Ground track

The orbit data is extracted from the following two-line orbital elements,

1 22626U 93024A   14109.43055055  .00003502  00000-0  39937-3 0   656
2 22626 082.5245 049.2817 0019441 354.9624 005.1394 14.85743343134540
Epoch (UTC): 19 April 2014 10:19:59
Eccentricity: 0.0019441
inclination: 82.5245°
perigee height: 597 km
apogee height: 625 km
right ascension of ascending node: 49.2817°
argument of perigee: 354.9624°
revolutions per day: 14.85743343
mean anomaly at epoch: 5.1394°
orbit number at epoch: 13454

The dashed part of the orbit path shows where the satellite is in the earth's shadow,  

DLR